User: anonymous   Login
Location: Oregon Trail
(41.1872°N, 102.0741°W)
Time: 12:20:40
(UTC+00:00)
Language:

Cosmos 1606 - Orbit

View from above orbital plane
View from above orbital plane
View from above satellite
View from above satellite

Ground track
Ground track

The orbit data is extracted from the following two-line orbital elements,

1 15369U 84111A   20028.72424649  .00000610  00000-0  29509-4 0  9995
2 15369  82.5268 261.8173 0017359 177.6459 182.4859 15.16560271925242
Epoch (UTC): 28 January 2020 17:22:54
Eccentricity: 0.0017359
inclination: 82.5268°
perigee height: 504 km
apogee height: 528 km
right ascension of ascending node: 261.8173°
argument of perigee: 177.6459°
revolutions per day: 15.16560271
mean anomaly at epoch: 182.4859°
orbit number at epoch: 92524

The dashed part of the orbit path shows where the satellite is in the earth's shadow,  

DLR